Date,TemperatureHighF,TemperatureAvgF,TemperatureLowF,DewpointHighF,DewpointAvgF,DewpointLowF,HumidityHigh,HumidityAvg,HumidityLow,PressureMaxIn,PressureMinIn,WindSpeedMaxMPH,WindSpeedAvgMPH,GustSpeedMaxMPH,PrecipitationSumIn
2013-2-1,54,39,31,28,14,7,49,36,26,29.75,29.48,11,2,11,0.00
2013-2-2,67,55,44,36,26,19,61,34,20,29.66,29.48,8,1,9,0.00
2013-2-3,71,54,36,35,22,15,68,33,14,29.66,29.34,8,1,8,0.00
2013-2-4,73,63,55,48,37,17,64,40,19,29.34,29.13,9,2,11,0.00
2013-2-5,66,61,58,59,52,46,89,74,50,29.39,29.25,7,1,7,0.00
2013-2-6,76,64,56,63,49,39,90,63,27,29.39,29.22,9,2,9,0.00
2013-2-7,79,65,53,54,42,29,79,47,18,29.48,29.19,12,3,12,0.00
2013-2-8,65,53,42,33,22,14,51,32,15,29.60,29.48,11,-30,11,0.00
2013-2-9,59,51,47,56,38,23,90,62,36,29.48,29.10,11,2,11,0.00
2013-2-10,68,58,44,64,27,14,93,37,15,29.36,29.01,11,1,11,0.87
2013-2-11,56,52,44,28,22,17,45,31,25,29.51,29.36,9,-8,12,0.00
2013-2-12,49,47,41,44,38,28,85,72,45,29.42,29.22,8,1,8,0.17
2013-2-13,58,47,39,30,25,19,64,45,25,29.51,29.39,8,1,8,0.00
2013-2-14,69,53,39,29,25,18,63,37,17,29.45,29.34,6,-3,7,0.00
2013-2-15,53,47,35,28,18,10,45,32,21,29.72,29.45,11,3,11,0.00
2013-2-16,56,44,31,21,16,11,46,33,22,29.75,29.51,6,0,6,0.00
2013-2-17,72,56,38,32,22,15,50,30,14,29.51,29.25,13,3,15,0.00
2013-2-18,76,62,49,44,31,16,56,34,17,29.51,29.13,12,3,12,0.00
2013-2-19,61,52,39,23,16,12,45,25,16,29.69,29.48,8,2,8,0.00
2013-2-20,53,45,42,34,27,19,65,50,27,29.51,29.16,8,2,9,0.00
2013-2-21,68,52,43,45,30,19,81,47,17,29.31,28.95,10,2,10,0.12
2013-2-22,48,39,31,27,16,11,52,40,28,29.51,29.31,10,2,10,0.00
2013-2-23,54,43,32,20,18,15,55,39,26,29.45,29.28,7,1,7,0.00
2013-2-24,69,54,34,33,26,18,56,36,22,29.28,28.95,11,2,12,0.00
2013-2-25,60,51,40,40,29,18,61,43,25,29.07,28.83,10,2,10,0.00
2013-2-26,58,47,40,24,21,17,49,37,25,29.28,29.07,9,2,11,0.00
2013-2-27,57,47,36,23,18,10,55,33,17,29.57,29.25,11,2,11,0.00
2013-2-28,59,46,36,21,16,10,45,30,19,29.63,29.51,10,2,10,0.00